This demonstration page uses our WeatherBlox Daily Observations layout. Learn more.

Left ArrowRight Arrow

40.92945, -100.16068

Hourly Observations for March 1, 2021

Temp ( °F °C ) Dew Point ( °F °C ) Humidity (%) Winds ( mph kmh ) Pressure ( in mb ) Visibility ( mi km ) Precip ( " mm )
12:15 am 00:15 Clear 30 -1.3 22 -5.5 73 73 WSW 5 7 30.29 1026 10 16 N/A
12:35 am 00:35 Clear 30 -1.2 22 -5.6 72 72 WSW 5 7 30.29 1026 10 16 N/A
12:55 am 00:55 Clear 31 -0.5 21 -6 67 67 WSW 8 13 30.28 1025 10 16 N/A
1:15 am 01:15 Clear 31 -0.4 21 -5.9 67 67 WSW 8 13 30.28 1025 10 16 N/A
1:35 am 01:35 Clear 30 -1 21 -5.9 70 70 W 9 15 30.29 1026 10 16 N/A
1:55 am 01:55 Clear 32 undefined 20 -6.5 62 62 WSW 7 11 30.28 1025 10 16 N/A
2:15 am 02:15 Clear 31 -0.5 20 -6.5 64 64 WSW 8 13 30.28 1025 10 16 N/A
2:35 am 02:35 Clear 30 -1 21 -6.3 68 68 W 9 15 30.30 1026 10 16 N/A
2:55 am 02:55 Clear 29 -1.7 21 -6.3 71 71 W 8 13 30.31 1027 10 16 N/A
3:15 am 03:15 Clear 27 -2.8 21 -6.2 78 78 WNW 8 13 30.33 1027 10 16 N/A
3:35 am 03:35 Clear 26 -3.2 21 -6.2 80 80 WNW 6 9 30.33 1027 10 16 N/A
3:55 am 03:55 Clear 26 -3.1 21 -6.2 79 79 NW 8 13 30.33 1027 10 16 N/A
4:15 am 04:15 Clear 28 -2.3 21 -6.3 74 74 NW 10 17 30.33 1027 10 16 N/A
4:35 am 04:35 Clear 28 -2.5 21 -6.2 76 76 NW 9 15 30.33 1027 10 16 N/A
4:55 am 04:55 Clear 27 -2.6 20 -6.5 75 75 NW 10 17 30.34 1028 10 16 N/A
5:15 am 05:15 Clear 28 -2.5 20 -6.5 74 74 NW 13 20 30.34 1028 10 16 N/A
5:30 am 05:30 Clear 28 -2.5 20 -6.6 74 74 WNW 12 19 30.34 1028 10 16 N/A
5:55 am 05:55 Clear 27 -2.7 20 -6.7 74 74 WNW 12 19 30.36 1028 10 16 N/A
6:15 am 06:15 Clear 27 -3 20 -6.6 76 76 WNW 10 17 30.37 1028 10 16 N/A
6:35 am 06:35 Clear 26 -3.2 20 -6.5 78 78 WNW 9 15 30.38 1029 10 16 N/A
6:55 am 06:55 Clear 26 -3.5 20 -6.5 80 80 WNW 9 15 30.39 1029 10 16 N/A
7:15 am 07:15 Sunny 26 -3.5 20 -6.6 79 79 W 9 15 30.39 1029 10 16 N/A
7:35 am 07:35 Sunny 26 -3.5 20 -6.7 79 79 W 10 17 30.40 1030 10 16 N/A
7:55 am 07:55 Sunny 26 -3.2 20 -6.5 78 78 W 10 17 30.41 1030 10 16 N/A
8:15 am 08:15 Sunny 28 -2.3 21 -6 76 76 WNW 10 17 30.41 1030 10 16 N/A
8:35 am 08:35 Sunny 29 -1.6 22 -5.7 74 74 WNW 10 17 30.41 1030 10 16 N/A
8:55 am 08:55 Sunny 31 -0.6 22 -5.5 70 70 WNW 13 20 30.41 1030 10 16 N/A
9:15 am 09:15 Sunny 32 undefined 22 -5.3 68 68 WNW 10 17 30.41 1030 10 16 N/A
9:35 am 09:35 Sunny 33 0.7 23 -4.9 66 66 NW 10 17 30.41 1030 10 16 N/A
9:55 am 09:55 Sunny 35 1.6 24 -4.5 64 64 NW 9 15 30.40 1030 10 16 N/A
10:15 am 10:15 Sunny 37 2.6 24 -4.2 61 61 NW 9 15 30.39 1029 10 16 N/A
10:35 am 10:35 Sunny 39 3.9 25 -3.9 57 57 NW 6 9 30.39 1029 10 16 N/A
10:55 am 10:55 Sunny 41 4.9 25 -3.8 54 54 NNW 5 7 30.38 1029 10 16 N/A
11:15 am 11:15 Sunny 42 5.8 25 -3.7 51 51 NW 3 6 30.37 1028 10 16 N/A
11:35 am 11:35 Sunny 43 6.2 25 -4.1 48 48 W 3 6 30.37 1028 10 16 N/A
11:55 am 11:55 Sunny 45 7 22 -5.6 41 41 NW 6 9 30.36 1028 10 16 N/A
12:15 pm 12:15 Sunny 46 7.5 22 -5.8 39 39 N 3 6 30.35 1028 10 16 N/A
12:35 pm 12:35 Sunny 46 7.6 20 -6.6 36 36 N N/A 30.35 1028 10 16 N/A
12:55 pm 12:55 Sunny 47 8.1 23 -5.2 39 39 NNW 5 7 30.34 1027 10 16 N/A
1:15 pm 13:15 Sunny 47 8.3 22 -5.5 37 37 N N/A 30.34 1027 10 16 N/A
1:35 pm 13:35 Sunny 47 8.5 21 -5.9 36 36 N 3 6 30.33 1027 10 16 N/A
1:55 pm 13:55 Sunny 48 8.9 24 -4.7 38 38 N N/A 30.32 1027 10 16 N/A
2:10 pm 14:10 Sunny 48 9 22 -5.4 36 36 SSE 3 6 30.32 1027 10 16 N/A
2:35 pm 14:35 Sunny 49 9.2 25 -4.1 39 39 NNE 6 9 30.31 1026 10 16 N/A
2:55 pm 14:55 Sunny 49 9.7 25 -4 38 38 N 3 6 30.29 1026 10 16 N/A
3:15 pm 15:15 Sunny 49 9.6 24 -4.5 37 37 N N/A 30.29 1026 10 16 N/A
3:35 pm 15:35 Sunny 50 10 26 -3.3 39 39 NW 3 6 30.29 1026 10 16 N/A
3:55 pm 15:55 Sunny 50 10 24 -4.2 37 37 WNW 6 9 30.29 1026 10 16 N/A
4:15 pm 16:15 Sunny 50 10 23 -5.2 34 34 N N/A 30.28 1025 10 16 N/A
4:35 pm 16:35 Sunny 50 10.1 25 -3.8 38 38 NNW 3 6 30.27 1025 10 16 N/A
4:55 pm 16:55 Sunny 50 10.1 24 -4.6 36 36 N N/A 30.27 1025 10 16 N/A
5:15 pm 17:15 Sunny 50 10.1 24 -4.4 36 36 N N/A 30.26 1025 10 16 N/A
5:30 pm 17:30 Sunny 50 10.1 24 -4.7 35 35 SSE 5 7 30.26 1025 10 16 N/A
5:55 pm 17:55 Sunny 49 9.7 26 -3.6 39 39 SE 6 9 30.26 1025 10 16 N/A
6:15 pm 18:15 Sunny 48 8.7 27 -2.8 45 45 SSE 6 9 30.27 1025 10 16 N/A
6:35 pm 18:35 Clear 44 6.9 30 -1.3 56 56 SSE 6 9 30.29 1026 10 16 N/A
6:55 pm 18:55 Clear 42 5.7 29 -1.9 58 58 SSE 7 11 30.30 1026 10 16 N/A
7:15 pm 19:15 Clear 40 4.6 28 -2.2 62 62 SSE 9 15 30.31 1026 10 16 N/A
7:35 pm 19:35 Clear 40 4.7 28 -2.5 60 60 SSE 9 15 30.31 1026 10 16 N/A
7:55 pm 19:55 Clear 37 3 28 -2.1 69 69 S 7 11 30.33 1027 10 16 N/A
8:15 pm 20:15 Clear 36 2 28 -2.5 72 72 SSE 6 9 30.34 1027 10 16 N/A
8:35 pm 20:35 Clear 35 1.7 28 -2.5 74 74 SSE 7 11 30.33 1027 10 16 N/A
8:55 pm 20:55 Clear 35 1.9 27 -2.7 72 72 S 8 13 30.33 1027 10 16 N/A
9:15 pm 21:15 Clear 34 1.2 27 -2.9 74 74 S 9 15 30.33 1027 10 16 N/A
9:35 pm 21:35 Clear 35 1.7 26 -3.2 70 70 S 9 15 30.32 1027 10 16 N/A
9:55 pm 21:55 Clear 37 2.7 25 -3.7 63 63 S 13 20 30.31 1026 10 16 N/A
10:15 pm 22:15 Clear 36 2.4 25 -3.8 64 64 S 12 19 30.30 1026 10 16 N/A
10:35 pm 22:35 Clear 36 2.4 25 -4.1 63 63 S 10 17 30.29 1026 10 16 N/A
10:55 pm 22:55 Clear 35 1.5 25 -4 67 67 S 10 17 30.30 1026 10 16 N/A
11:15 pm 23:15 Clear 34 1 25 -4.1 69 69 S 6 9 30.31 1026 10 16 N/A
11:35 pm 23:35 Clear 34 1.2 24 -4.4 67 67 S 8 13 30.30 1026 10 16 N/A
11:55 pm 23:55 Clear 37 2.5 23 -5 58 58 S 10 17 30.27 1025 10 16 N/A

Powered by AerisWeather